START_TIME,STEP,MOV.,A46,t_acc.,A13,t_acc.,M47,t_acc.,A17,t_acc.,A28,t_acc.,M38,t_acc.
1979-07-19 06:00:25.370 ,0,1,,0,41.,4.8,3.,4.8,,0,0.,4.8,20.,4.8
1979-07-19 06:00:30.170 ,0,1,,0,39.,4.8,1.,4.8,,0,0.,4.8,15.,4.8
1979-07-19 06:00:34.970 ,0,1,,0,18.,4.8,2.,4.8,,0,0.,4.8,6.,4.8
1979-07-19 06:00:39.770 ,0,1,,0,0.,4.8,0.,4.8,,0,0.,4.8,0.,4.8
1979-07-19 06:00:44.570 ,0,1,,0,0.,4.8,0.,4.8,,0,0.,4.8,0.,4.8
1979-07-19 06:00:49.370 ,4,1,,0,0.,4.8,0.,4.8,,0,0.,4.8,2.,4.8
1979-07-19 06:00:54.170 ,4,1,,0,0.,4.8,0.,4.8,,0,0.,4.8,8.,4.8
1979-07-19 06:00:58.970 ,4,1,,0,6.,4.8,1.,4.8,,0,0.,4.8,9.,4.8
1979-07-19 06:01:03.770 ,4,1,,0,34.,4.8,3.,4.8,,0,0.,4.8,13.,4.8
1979-07-19 06:01:08.570 ,4,1,,0,30.,4.8,4.,4.8,,0,0.,4.8,7.,4.8
1979-07-19 06:01:13.370 ,7,1,,0,13.,4.8,0.,4.8,,0,0.,4.8,5.,4.8
1979-07-19 06:01:18.170 ,7,1,,0,13.,4.8,1.,4.8,,0,0.,4.8,1.,4.8
1979-07-19 06:01:22.970 ,7,1,,0,4.,4.8,1.,4.8,,0,0.,4.8,4.,4.8
1979-07-19 06:01:27.770 ,7,1,,0,0.,4.8,0.,4.8,,0,0.,4.8,0.,4.8
1979-07-19 06:01:32.570 ,7,1,,0,0.,4.8,0.,4.8,,0,0.,4.8,0.,4.8
1979-07-19 06:01:37.370 ,3,1,,0,0.,4.8,0.,4.8,,0,0.,4.8,0.,4.8
1979-07-19 06:01:42.170 ,3,1,,0,1.,4.8,0.,4.8,,0,0.,4.8,3.,4.8
1979-07-19 06:01:46.970 ,3,1,,0,3.,4.8,0.,4.8,,0,0.,4.8,6.,4.8
1979-07-19 06:01:51.770 ,3,1,,0,18.,4.8,3.,4.8,,0,0.,4.8,3.,4.8
1979-07-19 06:01:56.570 ,3,1,,0,33.,4.8,2.,4.8,,0,0.,4.8,15.,4.8
1979-07-19 06:02:01.370 ,0,1,,0,47.,4.8,9.,4.8,,0,0.,4.8,14.,4.8
1979-07-19 06:02:06.170 ,0,1,,0,49.,4.8,4.,4.8,,0,0.,4.8,14.,4.8
1979-07-19 06:02:10.970 ,0,1,,0,15.,4.8,1.,4.8,,0,0.,4.8,15.,4.8
1979-07-19 06:02:15.770 ,0,1,,0,0.,4.8,0.,4.8,,0,0.,4.8,0.,4.8
1979-07-19 06:02:20.570 ,0,1,,0,0.,4.8,0.,4.8,,0,0.,4.8,0.,4.8
1979-07-19 06:03:13.370 ,0,0,,0,0.,4.8,0.,4.8,,0,0.,4.8,1.,4.8
1979-07-19 06:03:18.170 ,0,0,,0,0.,4.8,0.,4.8,,0,0.,4.8,2.,4.8
1979-07-19 06:03:22.970 ,0,0,,0,3.,4.8,0.,4.8,,0,0.,4.8,7.,4.8
1979-07-19 06:03:27.770 ,0,0,,0,18.,4.8,0.,4.8,,0,0.,4.8,5.,4.8
1979-07-19 06:03:32.570 ,0,0,,0,31.,4.8,3.,4.8,,0,0.,4.8,9.,4.8
1979-07-19 06:03:37.370 ,0,1,,0,38.,4.8,1.,4.8,,0,0.,4.8,20.,4.8
1979-07-19 06:03:42.170 ,0,1,,0,38.,4.8,5.,4.8,,0,0.,4.8,18.,4.8
1979-07-19 06:03:46.970 ,0,1,,0,9.,4.8,1.,4.8,,0,0.,4.8,7.,4.8
1979-07-19 06:03:51.770 ,0,1,,0,0.,4.8,0.,4.8,,0,0.,4.8,0.,4.8
1979-07-19 06:03:56.570 ,0,1,,0,0.,4.8,0.,4.8,,0,0.,4.8,1.,4.8
1979-07-19 06:04:01.370 ,4,1,,0,0.,4.8,0.,4.8,,0,0.,4.8,5.,4.8
1979-07-19 06:04:06.170 ,4,1,,0,0.,4.8,0.,4.8,,0,0.,4.8,15.,4.8
1979-07-19 06:04:10.970 ,4,1,,0,4.,4.8,2.,4.8,,0,0.,4.8,25.,4.8
1979-07-19 06:04:15.770 ,4,1,,0,34.,4.8,2.,4.8,,0,0.,4.8,6.,4.8
1979-07-19 06:04:20.570 ,4,1,,0,23.,4.8,3.,4.8,,0,0.,4.8,9.,4.8
1979-07-19 06:04:25.370 ,7,1,,0,5.,4.8,1.,4.8,,0,0.,4.8,1.,4.8
1979-07-19 06:04:30.170 ,7,1,,0,7.,4.8,0.,4.8,,0,0.,4.8,0.,4.8
1979-07-19 06:04:34.970 ,7,1,,0,11.,4.8,0.,4.8,,0,0.,4.8,2.,4.8
1979-07-19 06:04:39.770 ,7,1,,0,0.,4.8,0.,4.8,,0,0.,4.8,0.,4.8
1979-07-19 06:04:44.570 ,7,1,,0,0.,4.8,0.,4.8,,0,0.,4.8,0.,4.8
1979-07-19 06:04:49.370 ,3,1,,0,0.,4.8,0.,4.8,,0,0.,4.8,2.,4.8
1979-07-19 06:04:54.170 ,3,1,,0,0.,4.8,0.,4.8,,0,0.,4.8,2.,4.8
1979-07-19 06:04:58.970 ,3,1,,0,3.,4.8,0.,4.8,,0,0.,4.8,7.,4.8
1979-07-19 06:05:03.770 ,3,1,,0,11.,4.8,1.,4.8,,0,0.,4.8,9.,4.8
1979-07-19 06:05:08.570 ,3,1,,0,28.,4.8,2.,4.8,,0,0.,4.8,13.,4.8
1979-07-19 06:05:13.370 ,0,1,,0,37.,4.8,2.,4.8,,0,0.,4.8,13.,4.8
1979-07-19 06:05:18.170 ,0,1,,0,31.,4.8,1.,4.8,,0,0.,4.8,18.,4.8
1979-07-19 06:05:22.970 ,0,1,,0,13.,4.8,2.,4.8,,0,0.,4.8,12.,4.8
1979-07-19 06:05:27.770 ,0,1,,0,0.,4.8,0.,4.8,,0,0.,4.8,1.,4.8
1979-07-19 06:05:32.570 ,0,1,,0,0.,4.8,0.,4.8,,0,0.,4.8,0.,4.8
1979-07-19 06:05:37.370 ,0,0,,0,0.,4.8,0.,4.8,,0,0.,4.8,3.,4.8
1979-07-19 06:05:42.170 ,0,0,,0,0.,4.8,0.,4.8,,0,0.,4.8,9.,4.8
1979-07-19 06:05:46.970 ,0,0,,0,3.,4.8,1.,4.8,,0,0.,4.8,17.,4.8
1979-07-19 06:05:51.770 ,0,0,,0,34.,4.8,2.,4.8,,0,0.,4.8,8.,4.8
1979-07-19 06:05:56.570 ,0,0,,0,14.,4.8,1.,4.8,,0,0.,4.8,4.,4.8
1979-07-19 06:06:01.370 ,0,0,,0,14.,4.8,0.,4.8,,0,0.,4.8,9.,4.8
1979-07-19 06:06:06.170 ,0,0,,0,8.,4.8,0.,4.8,,0,0.,4.8,6.,4.8
1979-07-19 06:06:10.970 ,0,0,,0,10.,4.8,0.,4.8,,0,0.,4.8,3.,4.8
1979-07-19 06:06:15.770 ,0,0,,0,0.,4.8,0.,4.8,,0,0.,4.8,0.,4.8
1979-07-19 06:06:20.570 ,0,0,,0,0.,4.8,0.,4.8,,0,0.,4.8,0.,4.8
1979-07-19 06:06:25.370 ,5,0,,0,0.,4.8,0.,4.8,,0,0.,4.8,2.,4.8
1979-07-19 06:06:30.170 ,5,0,,0,0.,4.8,0.,4.8,,0,0.,4.8,3.,4.8
1979-07-19 06:06:34.970 ,5,0,,0,1.,4.8,0.,4.8,,0,0.,4.8,3.,4.8
1979-07-19 06:06:39.770 ,5,0,,0,14.,4.8,0.,4.8,,0,0.,4.8,5.,4.8
1979-07-19 06:06:44.570 ,5,0,,0,4.,4.8,0.,4.8,,0,0.,4.8,1.,4.8
1979-07-19 06:06:49.370 ,5,0,,0,8.,4.8,0.,4.8,,0,0.,4.8,4.,4.8
1979-07-19 06:06:54.170 ,5,0,,0,8.,4.8,0.,4.8,,0,0.,4.8,5.,4.8
1979-07-19 06:06:58.970 ,5,0,,0,11.,4.8,1.,4.8,,0,0.,4.8,4.,4.8
1979-07-19 06:07:03.770 ,5,0,,0,0.,4.8,0.,4.8,,0,0.,4.8,4.,4.8
1979-07-19 06:07:08.570 ,5,0,,0,0.,4.8,0.,4.8,,0,0.,4.8,5.,4.8
1979-07-19 06:07:13.370 ,4,0,,0,0.,4.8,0.,4.8,,0,0.,4.8,4.,4.8
1979-07-19 06:07:18.170 ,4,0,,0,0.,4.8,0.,4.8,,0,0.,4.8,7.,4.8
1979-07-19 06:07:22.970 ,4,0,,0,3.,4.8,0.,4.8,,0,0.,4.8,8.,4.8
1979-07-19 06:07:27.770 ,4,0,,0,20.,4.8,1.,4.8,,0,0.,4.8,8.,4.8
1979-07-19 06:07:32.570 ,4,0,,0,12.,4.8,0.,4.8,,0,0.,4.8,10.,4.8
1979-07-19 06:07:37.370 ,4,0,,0,17.,4.8,1.,4.8,,0,0.,4.8,7.,4.8
1979-07-19 06:07:42.170 ,4,0,,0,15.,4.8,0.,4.8,,0,0.,4.8,13.,4.8
1979-07-19 06:07:46.970 ,4,0,,0,19.,4.8,2.,4.8,,0,0.,4.8,5.,4.8
1979-07-19 06:07:51.770 ,4,0,,0,0.,4.8,0.,4.8,,0,0.,4.8,12.,4.8
1979-07-19 06:07:56.570 ,4,0,,0,0.,4.8,0.,4.8,,0,0.,4.8,5.,4.8
1979-07-19 06:08:01.370 ,3,0,,0,0.,4.8,0.,4.8,,0,0.,4.8,10.,4.8
1979-07-19 06:08:06.170 ,3,0,,0,0.,4.8,0.,4.8,,0,0.,4.8,13.,4.8
1979-07-19 06:08:10.970 ,3,0,,0,2.,4.8,0.,4.8,,0,0.,4.8,14.,4.8
1979-07-19 06:08:15.770 ,3,0,,0,25.,4.8,3.,4.8,,0,0.,4.8,19.,4.8
1979-07-19 06:08:20.570 ,3,0,,0,31.,4.8,4.,4.8,,0,0.,4.8,12.,4.8
1979-07-19 06:08:25.370 ,3,0,,0,39.,4.8,4.,4.8,,0,0.,4.8,13.,4.8
1979-07-19 06:08:30.170 ,3,0,,0,31.,4.8,0.,4.8,,0,0.,4.8,20.,4.8
1979-07-19 06:08:34.970 ,3,0,,0,18.,4.8,0.,4.8,,0,0.,4.8,17.,4.8
1979-07-19 06:08:39.770 ,3,0,,0,0.,4.8,0.,4.8,,0,0.,4.8,20.,4.8
1979-07-19 06:08:44.570 ,3,0,,0,0.,4.8,0.,4.8,,0,0.,4.8,12.,4.8
1979-07-19 06:08:49.370 ,2,0,,0,0.,4.8,0.,4.8,,0,0.,4.8,7.,4.8
1979-07-19 06:08:54.170 ,2,0,,0,0.,4.8,0.,4.8,,0,0.,4.8,13.,4.8
1979-07-19 06:08:58.970 ,2,0,,0,11.,4.8,0.,4.8,,0,0.,4.8,12.,4.8
1979-07-19 06:09:03.770 ,2,0,,0,37.,4.8,4.,4.8,,0,0.,4.8,21.,4.8
1979-07-19 06:09:08.570 ,2,0,,0,26.,4.8,5.,4.8,,0,0.,4.8,18.,4.8
1979-07-19 06:09:13.370 ,2,0,,0,25.,4.8,1.,4.8,,0,0.,4.8,18.,4.8
1979-07-19 06:09:18.170 ,2,0,,0,32.,4.8,3.,4.8,,0,0.,4.8,14.,4.8
1979-07-19 06:09:22.970 ,2,0,,0,18.,4.8,1.,4.8,,0,0.,4.8,10.,4.8
1979-07-19 06:09:27.770 ,2,0,,0,0.,4.8,0.,4.8,,0,0.,4.8,21.,4.8
1979-07-19 06:09:32.570 ,2,0,,0,0.,4.8,0.,4.8,,0,0.,4.8,20.,4.8
1979-07-19 06:09:37.370 ,1,0,,0,0.,4.8,0.,4.8,,0,0.,4.8,19.,4.8
1979-07-19 06:09:42.170 ,1,0,,0,0.,4.8,0.,4.8,,0,0.,4.8,13.,4.8
1979-07-19 06:09:46.970 ,1,0,,0,3.,4.8,0.,4.8,,0,0.,4.8,13.,4.8
1979-07-19 06:09:51.770 ,1,0,,0,15.,4.8,1.,4.8,,0,0.,4.8,6.,4.8
1979-07-19 06:09:56.570 ,1,0,,0,17.,4.8,2.,4.8,,0,0.,4.8,9.,4.8
1979-07-19 06:10:01.370 ,1,0,,0,21.,4.8,2.,4.8,,0,0.,4.8,9.,4.8
1979-07-19 06:10:06.170 ,1,0,,0,16.,4.8,3.,4.8,,0,0.,4.8,5.,4.8
1979-07-19 06:10:10.970 ,1,0,,0,15.,4.8,0.,4.8,,0,0.,4.8,9.,4.8
1979-07-19 06:10:15.770 ,1,0,,0,0.,4.8,0.,4.8,,0,0.,4.8,9.,4.8
1979-07-19 06:10:20.570 ,1,0,,0,0.,4.8,0.,4.8,,0,0.,4.8,18.,4.8
1979-07-19 06:10:25.370 ,0,0,,0,0.,4.8,0.,4.8,,0,0.,4.8,12.,4.8
1979-07-19 06:10:30.170 ,0,0,,0,0.,4.8,0.,4.8,,0,0.,4.8,5.,4.8
1979-07-19 06:10:34.970 ,0,0,,0,0.,4.8,0.,4.8,,0,0.,4.8,0.,4.8
1979-07-19 06:10:39.770 ,0,0,,0,3.,4.8,0.,4.8,,0,0.,4.8,0.,4.8
1979-07-19 06:10:44.570 ,0,0,,0,2.,4.8,0.,4.8,,0,0.,4.8,1.,4.8
1979-07-19 06:10:49.370 ,0,0,,0,3.,4.8,0.,4.8,,0,0.,4.8,0.,4.8
1979-07-19 06:10:54.170 ,0,0,,0,4.,4.8,1.,4.8,,0,0.,4.8,1.,4.8
1979-07-19 06:10:58.970 ,0,0,,0,4.,4.8,0.,4.8,,0,0.,4.8,1.,4.8
1979-07-19 06:11:03.770 ,0,0,,0,0.,4.8,0.,4.8,,0,0.,4.8,1.,4.8
1979-07-19 06:11:08.570 ,0,0,,0,0.,4.8,0.,4.8,,0,0.,4.8,0.,4.8
1979-07-19 06:11:13.370 ,0,0,,0,0.,4.8,0.,4.8,,0,0.,4.8,1.,4.8
1979-07-19 06:11:18.170 ,0,0,,0,0.,4.8,0.,4.8,,0,0.,4.8,0.,4.8
1979-07-19 06:11:22.970 ,0,0,,0,0.,4.8,0.,4.8,,0,0.,4.8,2.,4.8
1979-07-19 06:11:27.770 ,0,0,,0,2.,4.8,0.,4.8,,0,0.,4.8,1.,4.8
1979-07-19 06:11:32.570 ,0,0,,0,5.,4.8,0.,4.8,,0,0.,4.8,1.,4.8
1979-07-19 06:11:37.370 ,0,0,,0,3.,4.8,0.,4.8,,0,0.,4.8,0.,4.8
1979-07-19 06:11:42.170 ,0,0,,0,3.,4.8,0.,4.8,,0,0.,4.8,0.,4.8
1979-07-19 06:11:46.970 ,0,0,,0,6.,4.8,0.,4.8,,0,0.,4.8,1.,4.8
1979-07-19 06:11:51.770 ,0,0,,0,0.,4.8,0.,4.8,,0,0.,4.8,2.,4.8
1979-07-19 06:11:56.570 ,0,0,,0,1.,4.8,0.,4.8,,0,0.,4.8,2.,4.8
1979-07-19 06:12:01.370 ,1,0,,0,0.,4.8,0.,4.8,,0,0.,4.8,1.,4.8
1979-07-19 06:12:06.170 ,1,0,,0,0.,4.8,0.,4.8,,0,0.,4.8,3.,4.8
1979-07-19 06:12:10.970 ,1,0,,0,5.,4.8,0.,4.8,,0,0.,4.8,9.,4.8
1979-07-19 06:12:15.770 ,1,0,,0,13.,4.8,0.,4.8,,0,0.,4.8,7.,4.8
1979-07-19 06:12:20.570 ,1,0,,0,15.,4.8,1.,4.8,,0,0.,4.8,12.,4.8
1979-07-19 06:12:25.370 ,1,0,,0,19.,4.8,1.,4.8,,0,0.,4.8,10.,4.8
1979-07-19 06:12:30.170 ,1,0,,0,17.,4.8,1.,4.8,,0,0.,4.8,5.,4.8
1979-07-19 06:12:34.970 ,1,0,,0,11.,4.8,2.,4.8,,0,0.,4.8,6.,4.8
1979-07-19 06:12:39.770 ,1,0,,0,0.,4.8,0.,4.8,,0,0.,4.8,9.,4.8
1979-07-19 06:12:44.570 ,1,0,,0,0.,4.8,0.,4.8,,0,0.,4.8,3.,4.8
1979-07-19 06:12:49.370 ,2,0,,0,0.,4.8,0.,4.8,,0,0.,4.8,3.,4.8
1979-07-19 06:12:54.170 ,2,0,,0,0.,4.8,0.,4.8,,0,0.,4.8,15.,4.8
1979-07-19 06:12:58.970 ,2,0,,0,6.,4.8,0.,4.8,,0,0.,4.8,18.,4.8
1979-07-19 06:13:03.770 ,2,0,,0,36.,4.8,4.,4.8,,0,0.,4.8,17.,4.8
1979-07-19 06:13:08.570 ,2,0,,0,26.,4.8,3.,4.8,,0,0.,4.8,15.,4.8
1979-07-19 06:13:13.370 ,2,0,,0,29.,4.8,0.,4.8,,0,0.,4.8,17.,4.8
1979-07-19 06:13:18.170 ,2,0,,0,45.,4.8,5.,4.8,,0,0.,4.8,16.,4.8
1979-07-19 06:13:22.970 ,2,0,,0,32.,4.8,1.,4.8,,0,0.,4.8,15.,4.8
1979-07-19 06:13:27.770 ,2,0,,0,0.,4.8,0.,4.8,,0,0.,4.8,15.,4.8
1979-07-19 06:13:32.570 ,2,0,,0,0.,4.8,0.,4.8,,0,0.,4.8,27.,4.8
1979-07-19 06:19:13.370 ,0,0,,0,0.,4.8,0.,4.8,,0,0.,4.8,1.,4.8
1979-07-19 06:19:18.170 ,0,0,,0,0.,4.8,0.,4.8,,0,0.,4.8,3.,4.8
1979-07-19 06:19:22.970 ,0,0,,0,2.,4.8,0.,4.8,,0,0.,4.8,0.,4.8
1979-07-19 06:19:27.770 ,0,0,,0,14.,4.8,1.,4.8,,0,0.,4.8,3.,4.8
1979-07-19 06:19:32.570 ,0,0,,0,11.,4.8,0.,4.8,,0,0.,4.8,2.,4.8
1979-07-19 06:19:37.370 ,0,0,,0,11.,4.8,2.,4.8,,0,0.,4.8,7.,4.8
1979-07-19 06:19:42.170 ,0,0,,0,8.,4.8,1.,4.8,,0,0.,4.8,1.,4.8
1979-07-19 06:19:46.970 ,0,0,,0,8.,4.8,0.,4.8,,0,0.,4.8,6.,4.8
1979-07-19 06:19:51.770 ,0,0,,0,0.,4.8,0.,4.8,,0,0.,4.8,8.,4.8
1979-07-19 06:19:56.570 ,0,0,,0,0.,4.8,0.,4.8,,0,0.,4.8,3.,4.8
1979-07-19 06:20:01.370 ,4,0,,0,0.,4.8,0.,4.8,,0,0.,4.8,6.,4.8
1979-07-19 06:20:06.170 ,4,0,,0,0.,4.8,0.,4.8,,0,0.,4.8,6.,4.8
1979-07-19 06:20:10.970 ,4,0,,0,0.,4.8,0.,4.8,,0,0.,4.8,14.,4.8
1979-07-19 06:20:15.770 ,4,0,,0,17.,4.8,4.,4.8,,0,0.,4.8,10.,4.8
1979-07-19 06:20:20.570 ,4,0,,0,17.,4.8,1.,4.8,,0,0.,4.8,8.,4.8
1979-07-19 06:20:25.370 ,4,0,,0,13.,4.8,0.,4.8,,0,0.,4.8,11.,4.8
1979-07-19 06:20:30.170 ,4,0,,0,14.,4.8,1.,4.8,,0,0.,4.8,8.,4.8
1979-07-19 06:20:34.970 ,4,0,,0,15.,4.8,1.,4.8,,0,0.,4.8,7.,4.8
1979-07-19 06:20:39.770 ,4,0,,0,0.,4.8,0.,4.8,,0,0.,4.8,8.,4.8
1979-07-19 06:20:44.570 ,4,0,,0,0.,4.8,0.,4.8,,0,0.,4.8,9.,4.8
1979-07-19 06:20:49.370 ,3,0,,0,0.,4.8,0.,4.8,,0,0.,4.8,6.,4.8
1979-07-19 06:20:54.170 ,3,0,,0,0.,4.8,0.,4.8,,0,0.,4.8,10.,4.8
1979-07-19 06:20:58.970 ,3,0,,0,3.,4.8,1.,4.8,,0,0.,4.8,15.,4.8
1979-07-19 06:21:03.770 ,3,0,,0,17.,4.8,2.,4.8,,0,0.,4.8,8.,4.8
1979-07-19 06:21:08.570 ,3,0,,0,25.,4.8,1.,4.8,,0,0.,4.8,10.,4.8
1979-07-19 06:21:13.370 ,3,0,,0,17.,4.8,1.,4.8,,0,0.,4.8,8.,4.8
1979-07-19 06:21:18.170 ,3,0,,0,26.,4.8,2.,4.8,,0,0.,4.8,9.,4.8
1979-07-19 06:21:22.970 ,3,0,,0,20.,4.8,2.,4.8,,0,0.,4.8,6.,4.8
1979-07-19 06:21:27.770 ,3,0,,0,0.,4.8,0.,4.8,,0,0.,4.8,8.,4.8
1979-07-19 06:21:32.570 ,3,0,,0,0.,4.8,0.,4.8,,0,0.,4.8,13.,4.8
1979-07-19 06:21:37.370 ,2,0,,0,0.,4.8,0.,4.8,,0,0.,4.8,8.,4.8
1979-07-19 06:21:42.170 ,2,0,,0,0.,4.8,0.,4.8,,0,0.,4.8,10.,4.8
1979-07-19 06:21:46.970 ,2,0,,0,4.,4.8,0.,4.8,,0,0.,4.8,19.,4.8
1979-07-19 06:21:51.770 ,2,0,,0,32.,4.8,4.,4.8,,0,0.,4.8,7.,4.8
1979-07-19 06:21:56.570 ,2,0,,0,30.,4.8,1.,4.8,,0,0.,4.8,13.,4.8
1979-07-19 06:22:01.370 ,2,0,,0,27.,4.8,0.,4.8,,0,0.,4.8,17.,4.8
1979-07-19 06:22:06.170 ,2,0,,0,33.,4.8,2.,4.8,,0,0.,4.8,6.,4.8
1979-07-19 06:22:10.970 ,2,0,,0,23.,4.8,1.,4.8,,0,0.,4.8,19.,4.8
1979-07-19 06:22:15.770 ,2,0,,0,0.,4.8,0.,4.8,,0,0.,4.8,15.,4.8
1979-07-19 06:22:20.570 ,2,0,,0,0.,4.8,0.,4.8,,0,0.,4.8,14.,4.8
1979-07-19 06:22:25.370 ,1,0,,0,0.,4.8,0.,4.8,,0,0.,4.8,16.,4.8
1979-07-19 06:22:30.170 ,1,0,,0,0.,4.8,0.,4.8,,0,0.,4.8,8.,4.8
1979-07-19 06:22:34.970 ,1,0,,0,1.,4.8,0.,4.8,,0,0.,4.8,5.,4.8
1979-07-19 06:22:39.770 ,1,0,,0,10.,4.8,1.,4.8,,0,0.,4.8,4.,4.8
1979-07-19 06:22:44.570 ,1,0,,0,13.,4.8,2.,4.8,,0,0.,4.8,6.,4.8
1979-07-19 06:22:49.370 ,1,0,,0,15.,4.8,3.,4.8,,0,0.,4.8,8.,4.8
1979-07-19 06:22:54.170 ,1,0,,0,6.,4.8,0.,4.8,,0,0.,4.8,10.,4.8
1979-07-19 06:22:58.970 ,1,0,,0,5.,4.8,0.,4.8,,0,0.,4.8,6.,4.8
1979-07-19 06:23:03.770 ,1,0,,0,0.,4.8,0.,4.8,,0,0.,4.8,6.,4.8
1979-07-19 06:23:08.570 ,1,0,,0,0.,4.8,0.,4.8,,0,0.,4.8,5.,4.8
1979-07-19 06:23:13.370 ,0,0,,0,0.,4.8,0.,4.8,,0,0.,4.8,3.,4.8
1979-07-19 06:23:18.170 ,0,0,,0,0.,4.8,0.,4.8,,0,0.,4.8,6.,4.8
1979-07-19 06:23:22.970 ,0,0,,0,0.,4.8,0.,4.8,,0,0.,4.8,0.,4.8
1979-07-19 06:23:27.770 ,0,0,,0,1.,4.8,0.,4.8,,0,0.,4.8,0.,4.8
1979-07-19 06:23:32.570 ,0,0,,0,3.,4.8,0.,4.8,,0,0.,4.8,0.,4.8
1979-07-19 06:23:37.370 ,0,0,,0,3.,4.8,0.,4.8,,0,0.,4.8,0.,4.8
1979-07-19 06:23:42.170 ,0,0,,0,1.,4.8,0.,4.8,,0,0.,4.8,0.,4.8
1979-07-19 06:23:46.970 ,0,0,,0,2.,4.8,0.,4.8,,0,0.,4.8,0.,4.8
1979-07-19 06:23:51.770 ,0,0,,0,0.,4.8,0.,4.8,,0,0.,4.8,0.,4.8
1979-07-19 06:23:56.570 ,0,0,,0,0.,4.8,0.,4.8,,0,0.,4.8,0.,4.8
1979-07-19 06:24:01.370 ,0,0,,0,0.,4.8,0.,4.8,,0,0.,4.8,0.,4.8
1979-07-19 06:24:06.170 ,0,0,,0,0.,4.8,0.,4.8,,0,0.,4.8,1.,4.8
1979-07-19 06:24:10.970 ,0,0,,0,0.,4.8,0.,4.8,,0,0.,4.8,0.,4.8
1979-07-19 06:24:15.770 ,0,0,,0,0.,4.8,0.,4.8,,0,0.,4.8,0.,4.8
1979-07-19 06:24:20.570 ,0,0,,0,1.,4.8,0.,4.8,,0,0.,4.8,0.,4.8
1979-07-19 06:24:25.370 ,0,0,,0,5.,4.8,0.,4.8,,0,0.,4.8,1.,4.8
1979-07-19 06:24:30.170 ,0,0,,0,2.,4.8,0.,4.8,,0,0.,4.8,0.,4.8
1979-07-19 06:24:34.970 ,0,0,,0,3.,4.8,0.,4.8,,0,0.,4.8,0.,4.8
1979-07-19 06:24:39.770 ,0,0,,0,0.,4.8,0.,4.8,,0,0.,4.8,0.,4.8
1979-07-19 06:24:44.570 ,0,0,,0,0.,4.8,0.,4.8,,0,0.,4.8,0.,4.8
1979-07-19 06:24:49.370 ,1,0,,0,0.,4.8,0.,4.8,,0,0.,4.8,0.,4.8
1979-07-19 06:24:54.170 ,1,0,,0,0.,4.8,0.,4.8,,0,0.,4.8,1.,4.8
1979-07-19 06:24:58.970 ,1,0,,0,1.,4.8,0.,4.8,,0,0.,4.8,6.,4.8
1979-07-19 06:25:03.770 ,1,0,,0,14.,4.8,2.,4.8,,0,0.,4.8,4.,4.8
1979-07-19 06:25:08.570 ,1,0,,0,8.,4.8,2.,4.8,,0,0.,4.8,5.,4.8
1979-07-19 06:25:13.370 ,1,0,,0,8.,4.8,0.,4.8,,0,0.,4.8,4.,4.8
1979-07-19 06:25:18.170 ,1,0,,0,14.,4.8,3.,4.8,,0,0.,4.8,9.,4.8
1979-07-19 06:25:22.970 ,1,0,,0,10.,4.8,0.,4.8,,0,0.,4.8,7.,4.8
1979-07-19 06:25:27.770 ,1,0,,0,0.,4.8,0.,4.8,,0,0.,4.8,9.,4.8
1979-07-19 06:25:32.570 ,1,0,,0,0.,4.8,0.,4.8,,0,0.,4.8,4.,4.8
1979-07-19 06:25:37.370 ,2,0,,0,0.,4.8,0.,4.8,,0,0.,4.8,2.,4.8
1979-07-19 06:25:42.170 ,2,0,,0,0.,4.8,0.,4.8,,0,0.,4.8,8.,4.8
1979-07-19 06:25:46.970 ,2,0,,0,3.,4.8,0.,4.8,,0,0.,4.8,16.,4.8
1979-07-19 06:25:51.770 ,2,0,,0,35.,4.8,5.,4.8,,0,0.,4.8,10.,4.8
1979-07-19 06:25:56.570 ,2,0,,0,33.,4.8,1.,4.8,,0,0.,4.8,16.,4.8
1979-07-19 06:26:01.370 ,2,0,,0,31.,4.8,3.,4.8,,0,0.,4.8,17.,4.8
1979-07-19 06:26:06.170 ,2,0,,0,22.,4.8,0.,4.8,,0,0.,4.8,20.,4.8
1979-07-19 06:26:10.970 ,2,0,,0,29.,4.8,1.,4.8,,0,0.,4.8,8.,4.8
1979-07-19 06:26:15.770 ,2,0,,0,0.,4.8,0.,4.8,,0,0.,4.8,9.,4.8
1979-07-19 06:26:20.570 ,2,0,,0,0.,4.8,0.,4.8,,0,0.,4.8,21.,4.8
1979-07-19 06:26:25.370 ,3,0,,0,0.,4.8,0.,4.8,,0,0.,4.8,14.,4.8
1979-07-19 06:26:30.170 ,3,0,,0,0.,4.8,0.,4.8,,0,0.,4.8,14.,4.8
1979-07-19 06:26:34.970 ,3,0,,0,4.,4.8,0.,4.8,,0,0.,4.8,12.,4.8
1979-07-19 06:26:39.770 ,3,0,,0,20.,4.8,0.,4.8,,0,0.,4.8,5.,4.8
1979-07-19 06:26:44.570 ,3,0,,0,19.,4.8,1.,4.8,,0,0.,4.8,2.,4.8
1979-07-19 06:26:49.370 ,3,0,,0,11.,4.8,1.,4.8,,0,0.,4.8,6.,4.8
1979-07-19 06:26:54.170 ,3,0,,0,17.,4.8,1.,4.8,,0,0.,4.8,5.,4.8
1979-07-19 06:26:58.970 ,3,0,,0,13.,4.8,1.,4.8,,0,0.,4.8,3.,4.8
1979-07-19 06:27:03.770 ,3,0,,0,0.,4.8,0.,4.8,,0,0.,4.8,4.,4.8
1979-07-19 06:27:08.570 ,3,0,,0,0.,4.8,0.,4.8,,0,0.,4.8,8.,4.8
1979-07-19 06:27:13.370 ,4,0,,0,0.,4.8,0.,4.8,,0,0.,4.8,7.,4.8
1979-07-19 06:27:18.170 ,4,0,,0,0.,4.8,0.,4.8,,0,0.,4.8,6.,4.8
1979-07-19 06:27:22.970 ,4,0,,0,2.,4.8,0.,4.8,,0,0.,4.8,7.,4.8
1979-07-19 06:27:27.770 ,4,0,,0,14.,4.8,2.,4.8,,0,0.,4.8,5.,4.8
1979-07-19 06:27:32.570 ,4,0,,0,12.,4.8,0.,4.8,,0,0.,4.8,8.,4.8
1979-07-19 06:27:37.370 ,4,0,,0,9.,4.8,1.,4.8,,0,0.,4.8,5.,4.8
1979-07-19 06:27:42.170 ,4,0,,0,12.,4.8,0.,4.8,,0,0.,4.8,7.,4.8
1979-07-19 06:27:46.970 ,4,0,,0,18.,4.8,3.,4.8,,0,0.,4.8,10.,4.8
1979-07-19 06:27:51.770 ,4,0,,0,0.,4.8,0.,4.8,,0,0.,4.8,6.,4.8
1979-07-19 06:27:56.570 ,4,0,,0,0.,4.8,0.,4.8,,0,0.,4.8,4.,4.8
1979-07-19 06:28:01.370 ,5,0,,0,0.,4.8,0.,4.8,,0,0.,4.8,6.,4.8
1979-07-19 06:28:06.170 ,5,0,,0,0.,4.8,0.,4.8,,0,0.,4.8,7.,4.8
1979-07-19 06:28:10.970 ,5,0,,0,0.,4.8,0.,4.8,,0,0.,4.8,4.,4.8
1979-07-19 06:28:15.770 ,5,0,,0,12.,4.8,1.,4.8,,0,0.,4.8,4.,4.8
1979-07-19 06:28:20.570 ,5,0,,0,12.,4.8,2.,4.8,,0,0.,4.8,3.,4.8
1979-07-19 06:28:25.370 ,5,0,,0,8.,4.8,0.,4.8,,0,0.,4.8,4.,4.8
1979-07-19 06:28:30.170 ,5,0,,0,7.,4.8,0.,4.8,,0,0.,4.8,0.,4.8
1979-07-19 06:28:34.970 ,5,0,,0,15.,4.8,0.,4.8,,0,0.,4.8,2.,4.8
1979-07-19 06:28:39.770 ,5,0,,0,0.,4.8,0.,4.8,,0,0.,4.8,1.,4.8
1979-07-19 06:28:44.570 ,5,0,,0,0.,4.8,0.,4.8,,0,0.,4.8,5.,4.8
1979-07-19 06:28:49.370 ,6,0,,0,0.,4.8,0.,4.8,,0,0.,4.8,5.,4.8
1979-07-19 06:28:54.170 ,6,0,,0,0.,4.8,0.,4.8,,0,0.,4.8,2.,4.8
1979-07-19 06:28:58.970 ,6,0,,0,3.,4.8,0.,4.8,,0,0.,4.8,2.,4.8
1979-07-19 06:29:03.770 ,6,0,,0,9.,4.8,0.,4.8,,0,0.,4.8,2.,4.8
1979-07-19 06:29:08.570 ,6,0,,0,6.,4.8,1.,4.8,,0,0.,4.8,0.,4.8
1979-07-19 06:29:13.370 ,6,0,,0,8.,4.8,1.,4.8,,0,0.,4.8,1.,4.8
1979-07-19 06:29:18.170 ,6,0,,0,10.,4.8,1.,4.8,,0,0.,4.8,1.,4.8
1979-07-19 06:29:22.970 ,6,0,,0,5.,4.8,0.,4.8,,0,0.,4.8,2.,4.8
1979-07-19 06:29:27.770 ,6,0,,0,0.,4.8,0.,4.8,,0,0.,4.8,0.,4.8
1979-07-19 06:29:32.570 ,6,0,,0,0.,4.8,0.,4.8,,0,0.,4.8,1.,4.8
1979-07-19 06:29:37.370 ,7,0,,0,0.,4.8,0.,4.8,,0,0.,4.8,2.,4.8
1979-07-19 06:29:42.170 ,7,0,,0,0.,4.8,0.,4.8,,0,0.,4.8,3.,4.8
1979-07-19 06:29:46.970 ,7,0,,0,5.,4.8,0.,4.8,,0,0.,4.8,0.,4.8
1979-07-19 06:29:51.770 ,7,0,,0,9.,4.8,0.,4.8,,0,0.,4.8,0.,4.8
1979-07-19 06:29:56.570 ,7,0,,0,12.,4.8,0.,4.8,,0,0.,4.8,0.,4.8
1979-07-19 06:30:01.370 ,7,0,,0,15.,4.8,0.,4.8,,0,0.,4.8,0.,4.8
1979-07-19 06:30:06.170 ,7,0,,0,11.,4.8,0.,4.8,,0,0.,4.8,0.,4.8
1979-07-19 06:30:10.970 ,7,0,,0,6.,4.8,0.,4.8,,0,0.,4.8,0.,4.8
1979-07-19 06:30:15.770 ,7,0,,0,0.,4.8,0.,4.8,,0,0.,4.8,0.,4.8
1979-07-19 06:30:20.570 ,7,0,,0,0.,4.8,0.,4.8,,0,0.,4.8,0.,4.8
1979-07-19 06:30:25.370 ,7,0,,0,0.,4.8,0.,4.8,,0,0.,4.8,0.,4.8
1979-07-19 06:30:30.170 ,7,0,,0,0.,4.8,0.,4.8,,0,0.,4.8,0.,4.8
1979-07-19 06:30:34.970 ,7,0,,0,2.,4.8,0.,4.8,,0,0.,4.8,0.,4.8
1979-07-19 06:30:39.770 ,7,0,,0,7.,4.8,0.,4.8,,0,0.,4.8,0.,4.8
1979-07-19 06:30:44.570 ,7,0,,0,9.,4.8,0.,4.8,,0,0.,4.8,1.,4.8
1979-07-19 06:30:49.370 ,7,0,,0,9.,4.8,0.,4.8,,0,0.,4.8,0.,4.8
1979-07-19 06:30:54.170 ,7,0,,0,7.,4.8,0.,4.8,,0,0.,4.8,0.,4.8
1979-07-19 06:30:58.970 ,7,0,,0,9.,4.8,0.,4.8,,0,0.,4.8,0.,4.8
1979-07-19 06:31:03.770 ,7,0,,0,0.,4.8,0.,4.8,,0,0.,4.8,0.,4.8
1979-07-19 06:31:08.570 ,7,0,,0,0.,4.8,0.,4.8,,0,0.,4.8,0.,4.8
1979-07-19 06:31:13.370 ,6,0,,0,0.,4.8,0.,4.8,,0,0.,4.8,0.,4.8
1979-07-19 06:31:18.170 ,6,0,,0,0.,4.8,0.,4.8,,0,0.,4.8,1.,4.8
1979-07-19 06:31:22.970 ,6,0,,0,2.,4.8,0.,4.8,,0,0.,4.8,1.,4.8
1979-07-19 06:31:27.770 ,6,0,,0,5.,4.8,0.,4.8,,0,0.,4.8,0.,4.8
1979-07-19 06:31:32.570 ,6,0,,0,6.,4.8,0.,4.8,,0,0.,4.8,3.,4.8
1979-07-19 06:31:37.370 ,6,0,,0,3.,4.8,0.,4.8,,0,0.,4.8,2.,4.8
1979-07-19 06:31:42.170 ,6,0,,0,6.,4.8,1.,4.8,,0,0.,4.8,2.,4.8
1979-07-19 06:31:46.970 ,6,0,,0,12.,4.8,2.,4.8,,0,0.,4.8,1.,4.8
1979-07-19 06:31:51.770 ,6,0,,0,0.,4.8,0.,4.8,,0,0.,4.8,2.,4.8
1979-07-19 06:31:56.570 ,6,0,,0,0.,4.8,0.,4.8,,0,0.,4.8,0.,4.8
1979-07-19 06:32:01.370 ,5,0,,0,0.,4.8,0.,4.8,,0,0.,4.8,1.,4.8
1979-07-19 06:32:06.170 ,5,0,,0,0.,4.8,0.,4.8,,0,0.,4.8,1.,4.8
1979-07-19 06:32:10.970 ,5,0,,0,3.,4.8,0.,4.8,,0,0.,4.8,0.,4.8
1979-07-19 06:32:15.770 ,5,0,,0,12.,4.8,0.,4.8,,0,0.,4.8,2.,4.8
1979-07-19 06:32:20.570 ,5,0,,0,11.,4.8,3.,4.8,,0,0.,4.8,4.,4.8
1979-07-19 06:32:25.370 ,0,0,,0,,0,,0,,0,,0,,0
1979-07-19 06:32:30.170 ,0,0,,0,,0,,0,,0,,0,,0
1979-07-19 06:32:34.970 ,0,0,,0,,0,,0,,0,,0,,0
1979-07-19 06:32:39.770 ,0,0,,0,,0,,0,,0,,0,,0
1979-07-19 06:32:44.570 ,0,0,,0,,0,,0,,0,,0,,0
1979-07-19 06:32:37.970 ,0,0,,0,,0,,0,,0,,0,,0
1979-07-19 06:32:42.770 ,0,0,,0,,0,,0,,0,,0,,0
1979-07-19 06:32:47.570 ,0,0,,0,9.,4.8,0.,4.8,,0,0.,4.8,2.,4.8
1979-07-19 06:32:52.370 ,0,0,,0,0.,4.8,0.,4.8,,0,0.,4.8,5.,4.8
1979-07-19 06:32:57.170 ,0,0,,0,0.,4.8,0.,4.8,,0,0.,4.8,4.,4.8
1979-07-19 06:33:37.370 ,0,0,,0,0.,4.8,0.,4.8,,0,0.,4.8,4.,4.8
1979-07-19 06:33:42.170 ,0,0,,0,0.,4.8,0.,4.8,,0,0.,4.8,4.,4.8
1979-07-19 06:33:46.970 ,0,0,,0,3.,4.8,0.,4.8,,0,0.,4.8,5.,4.8
1979-07-19 06:33:51.770 ,0,0,,0,10.,4.8,0.,4.8,,0,0.,4.8,4.,4.8
1979-07-19 06:33:56.570 ,0,0,,0,10.,4.8,2.,4.8,,0,0.,4.8,5.,4.8
1979-07-19 06:34:01.370 ,0,0,,0,14.,4.8,0.,4.8,,0,0.,4.8,3.,4.8
1979-07-19 06:34:06.170 ,0,0,,0,18.,4.8,2.,4.8,,0,0.,4.8,5.,4.8
1979-07-19 06:34:10.970 ,0,0,,0,13.,4.8,0.,4.8,,0,0.,4.8,6.,4.8
1979-07-19 06:34:15.770 ,0,0,,0,0.,4.8,0.,4.8,,0,0.,4.8,2.,4.8
1979-07-19 06:34:20.570 ,0,0,,0,0.,4.8,0.,4.8,,0,0.,4.8,12.,4.8
1979-07-19 06:34:25.370 ,2,0,,0,0.,4.8,0.,4.8,,0,0.,4.8,3.,4.8
1979-07-19 06:34:30.170 ,2,0,,0,0.,4.8,0.,4.8,,0,0.,4.8,8.,4.8
1979-07-19 06:34:34.970 ,2,0,,0,3.,4.8,0.,4.8,,0,0.,4.8,9.,4.8
1979-07-19 06:34:39.770 ,2,0,,0,20.,4.8,0.,4.8,,0,0.,4.8,11.,4.8
1979-07-19 06:34:44.570 ,2,0,,0,27.,4.8,1.,4.8,,0,0.,4.8,17.,4.8
1979-07-19 06:34:49.370 ,2,0,,0,25.,4.8,3.,4.8,,0,0.,4.8,8.,4.8
1979-07-19 06:34:54.170 ,2,0,,0,33.,4.8,1.,4.8,,0,0.,4.8,14.,4.8
1979-07-19 06:34:58.970 ,2,0,,0,15.,4.8,1.,4.8,,0,0.,4.8,16.,4.8
1979-07-19 06:35:03.770 ,2,0,,0,0.,4.8,0.,4.8,,0,0.,4.8,9.,4.8
1979-07-19 06:35:08.570 ,2,0,,0,0.,4.8,0.,4.8,,0,0.,4.8,17.,4.8
1979-07-19 06:35:13.370 ,1,0,,0,0.,4.8,0.,4.8,,0,0.,4.8,12.,4.8
1979-07-19 06:35:18.170 ,1,0,,0,0.,4.8,0.,4.8,,0,0.,4.8,13.,4.8
1979-07-19 06:35:22.970 ,1,0,,0,1.,4.8,0.,4.8,,0,0.,4.8,5.,4.8
1979-07-19 06:35:27.770 ,1,0,,0,4.,4.8,0.,4.8,,0,0.,4.8,2.,4.8
1979-07-19 06:35:32.570 ,1,0,,0,7.,4.8,1.,4.8,,0,0.,4.8,2.,4.8
1979-07-19 06:35:37.370 ,1,0,,0,7.,4.8,1.,4.8,,0,0.,4.8,1.,4.8
1979-07-19 06:35:42.170 ,1,0,,0,4.,4.8,0.,4.8,,0,0.,4.8,0.,4.8
1979-07-19 06:35:46.970 ,1,0,,0,8.,4.8,1.,4.8,,0,0.,4.8,2.,4.8
1979-07-19 06:35:51.770 ,1,0,,0,0.,4.8,0.,4.8,,0,0.,4.8,1.,4.8
1979-07-19 06:35:56.570 ,1,0,,0,0.,4.8,0.,4.8,,0,0.,4.8,0.,4.8
1979-07-19 06:36:01.370 ,0,0,,0,0.,4.8,0.,4.8,,0,0.,4.8,2.,4.8
1979-07-19 06:36:06.170 ,0,0,,0,0.,4.8,0.,4.8,,0,0.,4.8,1.,4.8
1979-07-19 06:36:10.970 ,0,0,,0,1.,4.8,0.,4.8,,0,0.,4.8,0.,4.8
1979-07-19 06:36:15.770 ,0,0,,0,1.,4.8,0.,4.8,,0,0.,4.8,0.,4.8
1979-07-19 06:36:20.570 ,0,0,,0,0.,4.8,0.,4.8,,0,0.,4.8,0.,4.8
1979-07-19 06:36:25.370 ,0,0,,0,1.,4.8,0.,4.8,,0,0.,4.8,0.,4.8
1979-07-19 06:36:30.170 ,0,0,,0,1.,4.8,0.,4.8,,0,0.,4.8,0.,4.8
1979-07-19 06:36:34.970 ,0,0,,0,2.,4.8,0.,4.8,,0,0.,4.8,0.,4.8
1979-07-19 06:36:39.770 ,0,0,,0,0.,4.8,0.,4.8,,0,0.,4.8,0.,4.8
1979-07-19 06:36:44.570 ,0,0,,0,0.,4.8,0.,4.8,,0,0.,4.8,0.,4.8
1979-07-19 06:36:49.370 ,0,0,,0,0.,4.8,0.,4.8,,0,0.,4.8,0.,4.8
1979-07-19 06:36:54.170 ,0,0,,0,0.,4.8,0.,4.8,,0,0.,4.8,0.,4.8